EN

Hourly Weather Amalte

Today, 26 January, Tuesday

Time Temperature Precipitation Wind Pressure Humidity
00:00 +1°C° 0 mm 3 mps 665 mmHg 35%
01:00 +1°C° 0 mm 3 mps 664 mmHg 34%
02:00 +1°C° 0 mm 3 mps 664 mmHg 33%
03:00 +1°C° 0 mm 3 mps 663 mmHg 32%
04:00 +1°C° 0 mm 3 mps 663 mmHg 31%
05:00 +1°C° 0 mm 3 mps 663 mmHg 31%
06:00 +1°C° 0 mm 3 mps 664 mmHg 31%
07:00 +2°C° 0 mm 2 mps 664 mmHg 31%
08:00 +3°C° 0 mm 2 mps 664 mmHg 31%
09:00 +4°C° 0 mm 2 mps 665 mmHg 31%
10:00 +5°C° 0 mm 2 mps 665 mmHg 30%
11:00 +8°C° 0 mm 1 mps 665 mmHg 30%
12:00 +9°C° 0 mm 1 mps 666 mmHg 30%
13:00 +8°C° 0 mm 1 mps 666 mmHg 33%
14:00 +8°C° 0 mm 1 mps 666 mmHg 36%
15:00 +8°C° 0 mm 1 mps 666 mmHg 39%
16:00 +6°C° 0 mm 1 mps 666 mmHg 40%
17:00 +5°C° 0 mm 1 mps 666 mmHg 41%
18:00 +4°C° 0 mm 1 mps 666 mmHg 42%
19:00 +4°C° 0 mm 1 mps 666 mmHg 42%
20:00 +3°C° 0 mm 1 mps 666 mmHg 41%
21:00 +3°C° 0 mm 1 mps 666 mmHg 41%
22:00 +3°C° 0 mm 1 mps 666 mmHg 40%
23:00 +2°C° 0 mm 2 mps 666 mmHg 40%

Tomorrow, 27 January, Wednesday

Time Temperature Precipitation Wind Pressure Humidity
00:00 +2°C° 0 mm 2 mps 666 mmHg 39%
01:00 +2°C° 0 mm 2 mps 666 mmHg 39%
02:00 +2°C° 0 mm 2 mps 665 mmHg 38%
03:00 +2°C° 0 mm 2 mps 665 mmHg 37%
04:00 +2°C° 0 mm 2 mps 665 mmHg 37%
05:00 +2°C° 0 mm 2 mps 665 mmHg 37%
06:00 +2°C° 0 mm 2 mps 665 mmHg 37%
07:00 +3°C° 0 mm 2 mps 665 mmHg 36%
08:00 +4°C° 0 mm 2 mps 665 mmHg 36%
09:00 +5°C° 0 mm 2 mps 665 mmHg 35%
10:00 +7°C° 0 mm 2 mps 665 mmHg 34%
11:00 +9°C° 0 mm 2 mps 665 mmHg 33%
12:00 +11°C° 0 mm 1 mps 665 mmHg 32%
13:00 +11°C° 0 mm 1 mps 664 mmHg 35%
14:00 +10°C° 0 mm 2 mps 664 mmHg 38%
15:00 +10°C° 0 mm 2 mps 663 mmHg 41%
16:00 +9°C° 0 mm 2 mps 662 mmHg 41%
17:00 +7°C° 0 mm 3 mps 662 mmHg 42%
18:00 +5°C° 0 mm 3 mps 662 mmHg 43%
19:00 +5°C° 0 mm 3 mps 661 mmHg 41%
20:00 +5°C° 0 mm 4 mps 661 mmHg 39%
21:00 +5°C° 0 mm 4 mps 661 mmHg 38%
22:00 +5°C° 0 mm 4 mps 660 mmHg 38%
23:00 +4°C° 0 mm 4 mps 660 mmHg 38%

Day after tomorrow, 28 January, Thursday

Time Temperature Precipitation Wind Pressure Humidity
00:00 +4°C° 0 mm 4 mps 660 mmHg 38%
01:00 +4°C° 0 mm 4 mps 659 mmHg 38%
02:00 +4°C° 0 mm 4 mps 659 mmHg 38%
03:00 +4°C° 0 mm 4 mps 659 mmHg 38%
04:00 +4°C° 0 mm 3 mps 658 mmHg 38%
05:00 +4°C° 0 mm 3 mps 658 mmHg 37%
06:00 +4°C° 0 mm 3 mps 658 mmHg 37%
07:00 +5°C° 0 mm 3 mps 659 mmHg 37%
08:00 +5°C° 0 mm 3 mps 659 mmHg 38%
09:00 +7°C° 0 mm 3 mps 659 mmHg 38%
10:00 +9°C° 0 mm 2 mps 659 mmHg 38%
11:00 +10°C° 0 mm 2 mps 659 mmHg 37%
12:00 +13°C° 0 mm 2 mps 659 mmHg 36%
13:00 +13°C° 0 mm 2 mps 659 mmHg 39%
14:00 +13°C° 0 mm 2 mps 658 mmHg 42%
15:00 +13°C° 0 mm 2 mps 658 mmHg 45%
16:00 +10°C° 0 mm 2 mps 657 mmHg 49%
17:00 +9°C° 0 mm 3 mps 657 mmHg 53%
18:00 +7°C° 0 mm 3 mps 657 mmHg 56%
19:00 +7°C° 0 mm 3 mps 657 mmHg 58%
20:00 +6°C° 0 mm 2 mps 657 mmHg 59%
21:00 +5°C° 0 mm 2 mps 657 mmHg 61%
22:00 +5°C° 0 mm 2 mps 657 mmHg 61%
23:00 +5°C° 0 mm 2 mps 657 mmHg 61%

29 January, Friday

Time Temperature Precipitation Wind Pressure Humidity
00:00 +5°C° 0 mm 2 mps 658 mmHg 61%
01:00 +5°C° 0 mm 2 mps 658 mmHg 64%
02:00 +4°C° 0 mm 2 mps 658 mmHg 66%
03:00 +5°C° 0 mm 1 mps 658 mmHg 68%
04:00 +4°C° 0 mm 1 mps 659 mmHg 71%
05:00 +3°C° 0 mm 1 mps 659 mmHg 74%
06:00 +3°C° 0 mm 1 mps 659 mmHg 76%
07:00 +3°C° 0 mm 1 mps 659 mmHg 73%
08:00 +4°C° 0 mm 1 mps 660 mmHg 70%
09:00 +4°C° 0 mm 2 mps 660 mmHg 67%
10:00 +5°C° 0 mm 2 mps 660 mmHg 63%
11:00 +6°C° 0 mm 2 mps 660 mmHg 60%
12:00 +6°C° 0 mm 2 mps 660 mmHg 57%
13:00 +6°C° 0 mm 2 mps 660 mmHg 58%
14:00 +6°C° 0 mm 2 mps 660 mmHg 58%
15:00 +6°C° 0 mm 2 mps 660 mmHg 59%
16:00 +5°C° 0 mm 2 mps 660 mmHg 63%
17:00 +4°C° 0 mm 2 mps 660 mmHg 67%
18:00 +3°C° 0 mm 2 mps 660 mmHg 70%
19:00 +3°C° 0 mm 2 mps 660 mmHg 72%
20:00 +2°C° 0 mm 2 mps 661 mmHg 74%
21:00 +2°C° 0 mm 2 mps 661 mmHg 76%
22:00 +3°C° 0 mm 1 mps 661 mmHg 78%
23:00 +2°C° 0 mm 1 mps 661 mmHg 79%

30 January, Saturday

Time Temperature Precipitation Wind Pressure Humidity
00:00 +2°C° 0 mm 1 mps 661 mmHg 81%
01:00 +2°C° 0 mm 1 mps 661 mmHg 81%
02:00 +2°C° 0 mm 1 mps 660 mmHg 82%
03:00 +1°C° 0 mm 0 mps 660 mmHg 82%
04:00 +2°C° 0 mm 1 mps 660 mmHg 82%
05:00 +1°C° 0 mm 1 mps 660 mmHg 82%
06:00 +1°C° 0 mm 1 mps 660 mmHg 82%
07:00 +2°C° 0 mm 1 mps 660 mmHg 78%
08:00 +2°C° 0 mm 1 mps 660 mmHg 74%
09:00 +2°C° 0 mm 1 mps 660 mmHg 71%
10:00 +4°C° 0 mm 1 mps 660 mmHg 65%
11:00 +5°C° 0 mm 1 mps 660 mmHg 59%
12:00 +6°C° 0 mm 1 mps 660 mmHg 53%
13:00 +6°C° 0 mm 1 mps 660 mmHg 53%
14:00 +6°C° 0 mm 1 mps 660 mmHg 53%
15:00 +7°C° 0 mm 1 mps 659 mmHg 54%
16:00 +6°C° 0 mm 1 mps 659 mmHg 60%
17:00 +4°C° 0 mm 1 mps 659 mmHg 67%
18:00 +3°C° 0 mm 1 mps 659 mmHg 73%
19:00 +2°C° 0 mm 2 mps 659 mmHg 68%
20:00 +2°C° 0 mm 2 mps 659 mmHg 63%
21:00 +2°C° 0 mm 2 mps 659 mmHg 58%
22:00 +2°C° 0 mm 2 mps 658 mmHg 53%
23:00 +2°C° 0 mm 2 mps 658 mmHg 48%

31 January, Sunday

Time Temperature Precipitation Wind Pressure Humidity
00:00 +2°C° 0 mm 2 mps 658 mmHg 44%
01:00 +2°C° 0 mm 2 mps 658 mmHg 41%
02:00 +1°C° 0 mm 2 mps 658 mmHg 39%
03:00 +1°C° 0 mm 2 mps 657 mmHg 37%
04:00 +2°C° 0 mm 2 mps 657 mmHg 37%
05:00 +1°C° 0 mm 3 mps 657 mmHg 37%
06:00 +1°C° 0 mm 3 mps 656 mmHg 36%
07:00 +2°C° 0 mm 3 mps 656 mmHg 36%
08:00 +3°C° 0 mm 3 mps 657 mmHg 35%
09:00 +4°C° 0 mm 3 mps 657 mmHg 34%
10:00 +5°C° 0 mm 3 mps 657 mmHg 34%
11:00 +8°C° 0 mm 3 mps 657 mmHg 34%
12:00 +9°C° 0 mm 2 mps 657 mmHg 34%
13:00 +9°C° 0 mm 3 mps 658 mmHg 37%
14:00 +9°C° 0 mm 3 mps 658 mmHg 40%
15:00 +9°C° 0 mm 3 mps 659 mmHg 43%
16:00 +8°C° 0 mm 3 mps 659 mmHg 50%
17:00 +5°C° 0 mm 3 mps 660 mmHg 57%
18:00 +4°C° 0 mm 2 mps 661 mmHg 64%
19:00 +3°C° 0 mm 2 mps 662 mmHg 68%
20:00 +2°C° 0 mm 2 mps 662 mmHg 72%
21:00 +2°C° 0 mm 2 mps 663 mmHg 76%
22:00 +2°C° 0 mm 1 mps 663 mmHg 75%
23:00 +2°C° 0 mm 1 mps 664 mmHg 74%
Show more